Regional Weather Roundup
Issued by NWS

Home | Current Version | Previous Version | Text Only | Print | Product List | Glossary Off
Versions: 1 2 3 4 5 6 7 8 9 10 11 12 13 14 15 16 17 18 19 20 21 22 23 24 25 26 27 28 29 30 31 32 33 34 35 36 37 38 39 40 41 42 43 44 45 46 47 48 49 50

000
ASUS45 KBOI 222210
RWRID
WEATHER ROUNDUP FOR IDAHO
NATIONAL WEATHER SERVICE BOISE ID
400 PM MDT TUE JUL 22 2014

NOTE: "FAIR" INDICATES FEW OR NO CLOUDS BELOW 12000 FEET
WITH NO SIGNIFICANT WEATHER AND/OR OBSTRUCTIONS TO VISIBILITY

IDZ012-014-222300-
SOUTHWEST IDAHO


CITY           SKY/WX    TMP DP  RH WIND       PRES   REMARKS
BOISE          CLOUDY    92  46  20 N9        30.08F
CALDWELL       CLOUDY    91  48  22 NE6       30.09F
MOUNTAIN HOME  PTSUNNY   91  44  19 W8        30.07F
$$

IDZ016-017-222300-
SOUTHCENTRAL IDAHO


CITY           SKY/WX    TMP DP  RH WIND       PRES   REMARKS
BURLEY         SUNNY     91  49  23 N9        30.12F
JEROME         MOSUNNY   92  50  23 NE7       30.12F
TWIN FALLS     SUNNY     93  48  21 N12       30.12F
$$

IDZ019>023-222300-
SOUTHEAST IDAHO


CITY           SKY/WX    TMP DP  RH WIND       PRES   REMARKS
IDAHO FALLS    MOSUNNY   90  45  21 SW8       30.22F
POCATELLO      MOSUNNY   92  51  24 NW13      30.19F
REXBURG        SUNNY     86  45  23 SW8       30.24F
$$

IDZ006-010-011-018-031-032-222300-
CENTRAL IDAHO MOUNTAINS


CITY           SKY/WX    TMP DP  RH WIND       PRES   REMARKS
MCCALL         PTSUNNY   78  42  27 SE8       30.23F
HAILEY         MOSUNNY   82  50  32 SE7       30.26F
STANLEY          N/A     78  39  24 SE9       30.33S
SALMON         PTSUNNY   84  50  30 SE6       30.06F
CHALLIS        PTSUNNY   89  33  13 SE8G20    30.19S
$$

IDZ002-004-006-007-026-222300-
NORTHERN IDAHO


CITY           SKY/WX    TMP DP  RH WIND       PRES   REMARKS
LEWISTON       LGT RAIN  81  55  40 W8        30.04R
LOWELL           N/A     96  55  25 VRB3      29.95F HX  94
COEUR D`ALENE  CLOUDY    70  59  68 MISG      30.15S
MULLAN PASS    PTSUNNY   67  51  56 VRB5      30.30S
$$


USA.gov is the U.S. government's official web portal to all federal, state and local government web resources and services.